Location: Olevano sul Tusciano
(40.6667°N, 15.0167°E)
Time: 02:43:26
(UTC+00:00)

Daily predictions for brighter satellites

Satellite Brightness Start Highest point End
(mag) Time Altitude Azimuth Time Altitude Azimuth Time Altitude Azimuth
Cosmos 1980 Rocket 4.2 01:46:28 24° E 01:46:28 24° E 01:49:26 10° ESE
ATLAS CENTAUR R/B 4.4 02:07:28 13° NE 02:07:28 13° NE 02:07:57 10° NE
Lacrosse 5 rocket 4.3 02:09:23 16° ENE 02:09:23 16° ENE 02:10:24 10° ENE
Lacrosse 5 4.4 02:13:30 14° NNE 02:13:30 14° NNE 02:16:06 10° NE
Cosmos 2154 Rocket 4.4 02:24:29 10° N 02:36:10 14° SSE 02:36:55 10° S
NOSS 3-1 (C) 4.2 02:38:06 28° NNW 02:42:44 79° NE 02:51:38 10° SE
ALOS 2.9 02:39:20 10° NNE 02:43:16 52° ENE 02:43:16 52° ENE
Cosmos 2082 Rocket 2.7 02:46:57 48° N 02:46:57 48° N 02:51:14 10° NNE
Cosmos 1125 Rocket 3.4 02:55:22 84° ENE 02:55:24 84° ENE 03:00:35 10° SSE
COSMOS 2455 3.2 02:54:01 36° S 02:56:26 63° ESE 03:02:22 10° NE
ATLAS 5 CENTAUR R/B 4.5 03:02:20 14° S 03:02:20 14° S 03:03:28 10° S
Cosmos 1707 4.0 03:02:53 16° SSE 03:05:39 40° E 03:09:20 10° NNE
METEOR-M 4.4 03:00:29 10° NNE 03:05:48 66° ESE 03:11:06 10° S
BREEZE-M DEB (TANK) 3.7 03:07:54 26° NE 03:07:54 26° NE 03:09:07 10° NE
Cosmos 1833 Rocket 4.4 03:09:22 18° NNW 03:09:22 18° NNW 03:11:38 10° N
Cosmos 962 Rocket 4.5 03:01:29 10° N 03:07:45 85° E 03:14:05 10° S
Cosmos 1378 Rocket 4.5 03:05:32 10° SSE 03:09:45 48° E 03:14:01 10° NNE
Okean 2 Rocket 3.1 03:07:01 10° N 03:11:34 83° E 03:16:05 10° S
Cosmos 2221 Rocket 3.6 03:12:43 65° NNW 03:12:43 65° NNW 03:16:33 10° N
USA 234 3.2 03:15:04 10° NE 03:21:34 71° NW 03:24:19 37° WSW
GEOS 3 Rocket 4.5 03:16:56 10° NE 03:21:51 46° ESE 03:26:43 10° SSW
CZ-2C R/B 3.2 03:19:42 10° N 03:23:03 34° NW 03:23:03 34° NW
SL-4 R/B 4.1 03:24:38 18° NNW 03:25:44 19° N 03:28:46 10° NE
Cosmos 1980 Rocket 2.5 03:28:25 42° W 03:28:41 43° WSW 03:34:00 10° S
Cosmos 2218 Rocket 4.2 03:23:51 10° N 03:30:16 75° E 03:36:38 10° SSE
SL-8 Rocket 3.9 03:24:49 10° N 03:31:05 89° E 03:37:15 10° S
Spot 4 Rocket 4.3 03:27:29 10° N 03:32:20 43° WNW 03:32:57 41° W
CZ-2C R/B 3.8 03:31:48 10° N 03:33:58 30° NNW 03:33:58 30° NNW
Cosmos 1470 2.6 03:31:47 10° NNW 03:35:40 70° W 03:39:30 10° S
FENGYUN 3A 4.0 03:30:35 10° N 03:35:40 42° WNW 03:37:10 35° WSW
Meteor 2-10 4.2 03:31:33 10° NNW 03:36:19 43° W 03:41:10 10° SSW
Cosmos 389 Rocket 3.3 03:33:48 10° N 03:37:13 50° ENE 03:40:40 10° SSE
CZ-4B R/B 4.2 03:36:29 10° N 03:41:06 32° WNW 03:41:24 32° WNW
ARIANE 5 R/B 4.1 03:37:48 10° NNW 03:39:39 17° NW 03:39:39 17° NW
Cosmos 1484 Rocket 2.7 03:37:51 10° N 03:41:33 54° WNW 03:42:33 40° SW
ATLAS CENTAUR R/B 2.8 03:43:38 22° NW 03:43:38 22° NW 03:46:31 10° N
USA 229 DEB 3.9 03:36:06 10° NW 03:43:34 81° WSW 03:51:24 10° SSE
USA 229 3.9 03:36:12 10° NW 03:43:39 81° WSW 03:51:30 10° SSE
Okean 1 Rocket 3.3 03:40:15 10° N 03:44:41 74° E 03:49:07 10° SSE
Cosmos 1674 Rocket 3.5 03:40:55 10° SSW 03:45:11 58° W 03:49:28 10° N
Lacrosse 5 rocket 2.2 03:45:01 33° NW 03:45:38 34° NW 03:49:41 10° NNE
Cosmos 371 Rocket 3.9 03:43:15 10° NNW 03:48:05 58° ENE 03:52:52 10° SSE
Cosmos 2151 Rocket 3.8 03:47:15 10° NNW 03:51:25 42° W 03:55:35 10° SSW
FALCON 9 DEB 4.2 03:54:21 27° SW 03:54:21 27° SW 03:57:02 10° SSE
Okean 2 3.6 03:51:34 18° SW 03:54:18 43° WNW 03:58:13 10° N
Cosmos 1340 4.0 03:55:51 22° NW 03:55:51 22° NW 03:57:53 10° NNW
Cosmos 1674 2.7 03:51:27 10° S 03:55:08 75° E 03:58:52 10° N
Cosmos 1758 3.2 03:53:14 10° NNW 03:57:12 71° W 04:01:09 10° S
Cosmos 2341 Rocket 4.2 03:51:30 10° NNW 03:57:26 45° W 04:03:18 10° SSW
Lacrosse 5 3.3 03:53:08 10° NNW 03:57:48 34° NE 04:02:25 10° E
Cosmos 1184 Rocket 2.9 03:58:16 10° S 04:01:26 70° E 04:04:36 10° NNE
Cosmos 1626 2.8 03:59:13 10° S 04:02:50 57° E 04:06:28 10° NNE
Cosmos 2278 4.4 03:58:57 14° NW 04:02:56 30° WSW 04:07:48 10° SSW
PSLV R/B 4.1 03:59:07 10° N 04:03:07 35° WNW 04:07:05 10° SW
Cosmos 1953 3.2 04:01:43 10° N 04:05:42 53° E 04:09:37 10° SSE
SAR-Lupe-3 4.4 04:02:08 10° N 04:05:42 69° WNW 04:09:14 10° SSW
NOSS 3-1 (A) 4.2 03:58:08 10° NW 04:05:49 60° WSW 04:14:33 10° SSE
In-Cosmos 22 4.1 04:04:40 10° SSW 04:09:52 59° WNW 04:15:06 10° N
CZ-4C R/B 4.1 04:06:27 10° SSE 04:09:54 47° ENE 04:13:22 10° N
H-2A ROCKET BODY 4.1 04:06:36 14° WSW 04:10:14 18° SW 04:13:26 10° S
Envisat 3.1 04:06:55 10° NNE 04:12:02 82° ESE 04:17:07 10° S
SJ-12 3.8 04:08:38 10° N 04:12:43 79° WNW 04:16:45 10° SSW
Cosmos 1346 Rocket 2.7 04:09:01 10° SSW 04:13:00 78° W 04:17:02 10° N
Meteor 1-16 Rocket 4.2 04:12:20 10° N 04:17:52 86° E 04:23:13 10° S
SL-16 R/B 2.2 04:13:19 10° NNW 04:18:55 62° WSW 04:24:29 10° S
YAOGAN 6 2.4 04:17:10 10° N 04:20:39 65° WNW 04:24:09 10° SSW
ALOS 3.8 04:18:12 10° NNW 04:20:50 15° WNW 04:21:45 14° WNW
KORONAS-FOTON 4.1 04:19:52 10° SSW 04:23:28 43° WNW 04:27:05 10° N
Cosmos 2366 rocket 4.5 04:24:16 10° NNW 04:30:03 38° W 04:35:49 10° SSW
Cosmos 2082 Rocket 4.1 04:28:59 10° WNW 04:30:46 11° NW 04:32:33 10° NNW
Cosmos 2322 Rocket 2.2 04:29:34 10° NNW 04:35:09 61° WSW 04:40:43 10° S
Cosmos 2333 Rocket 3.6 04:30:20 10° N 04:35:47 42° ENE 04:41:13 10° SE
Cosmos 44 3.7 04:31:37 10° NW 04:36:09 40° WSW 04:40:24 10° S
COSMO-SKYMED 1 2.7 04:35:33 10° S 04:39:46 52° W 04:44:01 10° NNW
OAO 2 Rocket 4.1 04:36:38 10° WSW 04:41:22 44° S 04:46:02 10° ESE
Meteor 1-31 Rocket 3.1 04:37:52 10° N 04:41:29 42° WNW 04:45:03 10° SW
CZ-2C R/B 2.7 04:36:46 10° S 04:42:11 70° WSW 04:47:45 10° NNW
COSMOS 2455 4.0 04:37:59 10° W 04:42:49 24° NW 04:47:41 10° N
BREEZE-M DEB (TANK) 3.7 04:42:11 10° NW 04:44:56 40° NE 04:50:44 10° ESE
SL-14 R/B 3.2 04:42:03 10° SSW 04:46:00 76° W 04:49:57 10° N
CZ-4B R/B 3.6 04:42:06 10° NNE 04:46:35 69° ESE 04:50:53 10° S
CZ-4C R/B 3.5 04:39:56 10° NNW 04:47:19 69° NE 04:55:49 10° SE
Cosmos 1908 3.7 04:44:08 10° NNW 04:47:39 36° W 04:51:08 10° SSW
CZ-4B R/B 4.0 04:45:42 10° ESE 04:48:05 21° ENE 04:50:31 10° NNE
IRAS Rocket 4.3 04:43:11 10° S 04:48:46 69° WSW 04:54:24 10° NNW
Cosmos 2360 Rocket 2.2 04:43:08 10° NNW 04:48:50 80° WSW 04:54:29 10° SSE
Cosmos 2219 Rocket 3.5 04:43:47 10° N 04:49:09 42° ENE 04:54:31 10° SE
ADEOS 3.6 04:45:27 10° N 04:50:38 66° WNW 04:55:47 10° SSW
